CW4541 Weather Reports


Display with metric or nautical units.
time (UTC)temp
F
wind
direction
speed
MPH
gust
MPH
rain 1hr
in
rain 24hr
in
rain mn
in
humidity
%
barometer
mb
20260905080605 55 135 0.0 0.0 0.00 0.00 0.00 39 1021.4
20260905080111 55 136 0.0 0.0 0.00 0.00 0.00 39 1021.5
20260905070605 56 129 0.0 1.0 0.00 0.00 0.00 36 1021.3
20260905070111 57 127 0.0 1.0 0.00 0.00 0.00 36 1021.1
20260905060605 56 113 0.0 0.0 0.00 0.00 0.00 35 1021.1
20260905060112 55 119 0.0 0.0 0.00 0.00 0.00 36 1021.2
20260905050606 55 31 0.0 0.0 0.00 0.00 0.00 33 1021.3
20260905050113 56 34 0.0 0.0 0.00 0.00 0.00 33 1021.4
20260905040606 59 26 0.0 0.0 0.00 0.00 0.00 29 1021.4
20260905030606 62 24 0.0 1.0 0.00 0.00 0.00 23 1020.7
20260905030112 62 24 0.0 1.0 0.00 0.00 0.00 23 1020.7
20260905020608 67 23 0.0 0.0 0.00 0.00 0.00 18 1019.7
20260905020112 68 16 0.0 0.0 0.00 0.00 0.00 17 1019.7
20260905010606 75 13 1.0 6.0 0.00 0.00 0.00 12 1019.4
20260905010112 76 155 1.0 5.0 0.00 0.00 0.00 12 1019.4
20260905000606 78 156 2.0 8.0 0.00 0.00 0.00 13 1019.4
20260904230607 78 118 1.0 12.0 0.00 0.00 0.00 16 1019.3
20260904230112 78 173 3.0 12.0 0.00 0.00 0.00 15 1019.4
20260904220606 79 165 3.0 9.0 0.00 0.00 0.00 17 1019.6
20260904220111 79 200 5.0 9.0 0.00 0.00 0.00 17 1019.6
20260904210112 79 155 7.0 12.0 0.00 0.00 0.00 15 1020.0
20260904200606 76 14 2.0 8.0 0.00 0.00 0.00 22 1020.5
20260904190111 75 14 2.0 8.0 0.00 0.00 0.00 27 1020.7
20260904180606 73 11 2.0 7.0 0.00 0.00 0.00 33 1021.6
20260904180112 73 14 0.0 7.0 0.00 0.00 0.00 29 1021.7
20260904170605 71 15 1.0 6.0 0.00 0.00 0.00 38 1021.6
20260904170112 71 15 2.0 6.0 0.00 0.00 0.00 37 1021.6
20260904160606 69 20 1.0 8.0 0.00 0.00 0.00 40 1021.5
20260904160111 69 17 2.0 8.0 0.00 0.00 0.00 40 1021.5
20260904150605 66 183 1.0 6.0 0.00 0.00 0.00 44 1021.3
20260904150112 66 221 2.0 7.0 0.00 0.00 0.00 44 1021.3
20260904140606 55 219 0.0 3.0 0.00 0.00 0.00 60 1021.7
20260904140111 54 178 0.0 2.0 0.00 0.00 0.00 61 1021.6
20260904130606 50 198 0.0 0.0 0.00 0.00 0.00 64 1021.1
20260904120606 53 198 0.0 0.0 0.00 0.00 0.00 57 1020.4
20260904120111 53 197 0.0 0.0 0.00 0.00 0.00 57 1020.4
20260904110111 55 195 0.0 0.0 0.00 0.00 0.00 52 1019.9
20260904100605 52 218 0.0 1.0 0.00 0.00 0.00 54 1019.4
20260904100111 52 219 0.0 0.0 0.00 0.00 0.00 53 1019.3
20260904090605 55 222 0.0 1.0 0.00 0.00 0.00 47 1018.9
20260904090111 55 35 0.0 1.0 0.00 0.00 0.00 46 1018.9